Regional Weather Roundup
Issued by NWS

Home | Current Version | Previous Version | Text Only | Print | Product List | Glossary On
Versions: 1 2 3 4 5 6 7 8 9 10 11 12 13 14 15 16 17 18 19 20 21 22 23 24 25 26 27 28 29 30 31 32 33 34 35 36 37 38 39 40 41 42 43 44 45 46 47 48 49 50
689
ASUS43 KTOP 231359
RWRKS

WEATHER ROUNDUP FOR KANSAS
NATIONAL WEATHER SERVICE GOODLAND KS
900 AM CDT TUE MAY 23 2017

NOTE:  "FAIR" INDICATES FEW OR NO CLOUDS BELOW 12,000 FEET WITH NO
SIGNIFICANT WEATHER AND/OR OBSTRUCTIONS TO VISIBILITY.

KSZ001>006-013>018-027>032-041>047-231500-
NORTHWEST KANSAS

CITY           SKY/WX    TMP DP  RH WIND       PRES   REMARKS
GOODLAND       SUNNY     49  42  77 NW16      30.12S
HAYS           SUNNY     54  45  71 NW12      30.05F
HILL CITY      SUNNY     53  45  74 NW10      30.06F
RUSSELL        SUNNY     53  46  77 NW16      30.02S
$$

KSZ061>065-074>080-084>089-231500-
SOUTHWEST KANSAS

CITY           SKY/WX    TMP DP  RH WIND       PRES   REMARKS
DODGE CITY     SUNNY     52  44  74 NW15      30.08R
ELKHART          N/A     48  31  52 NW14        N/A
GARDEN CITY    SUNNY     51  43  74 N14       30.10S
GREAT BEND     SUNNY     54  47  77 NW15G22   30.03S
LIBERAL        SUNNY     49  44  83 N13       30.13R
$$

KSZ066>073-081>083-090>101-231500-
SOUTHEAST KANSAS

CITY           SKY/WX    TMP DP  RH WIND       PRES   REMARKS
COFFEYVILLE    CLOUDY    60  56  86 N12       29.89S
HUTCHINSON     MOSUNNY   56  46  69 NW16      29.99S
NEWTON         MOSUNNY   56  49  77 N14       29.98R
PARSONS        CLOUDY    59  53  80 N9        29.90R
WICHITA INTL   PTSUNNY   57  49  74 N17       29.97S
WICHITA JABRA  MOSUNNY   58  50  75 N15       29.97S
WINFIELD       CLOUDY    56  52  86 NW12G22   29.97R
$$

KSZ007>012-019>026-033>040-048>060-102>105-231500-
NORTHEAST KANSAS

CITY           SKY/WX    TMP DP  RH WIND       PRES   REMARKS
CONCORDIA      SUNNY     54  48  80 NW8       29.99R
EMPORIA        PTSUNNY   56  49  77 N12       29.93S
LAWRENCE       CLOUDY    56  52  86 NW9       29.91R
MANHATTAN      SUNNY     59  49  69 VRB7      29.95S
OLATHE IND     CLOUDY    54  50  86 N13       29.90S
OLATHE EXE     CLOUDY    53  52  96 N13       29.89S
SALINA         SUNNY     58  49  72 NW17      29.97F
TOPEKA BILLARD CLOUDY    55  51  86 NW5       29.92S
TOPEKA FORBES  CLOUDY    56  50  80 N10       29.92R
$$




USA.gov is the U.S. government's official web portal to all federal, state and local government web resources and services.